Regional Weather Roundup
Issued by NWS

Home | Current Version | Previous Version | Text Only | Print | Product List | Glossary Off
Versions: 1 2 3 4 5 6 7 8 9 10 11 12 13 14 15 16 17 18 19 20 21 22 23 24 25 26 27 28 29 30 31 32 33 34 35 36 37 38 39 40 41 42 43 44 45 46 47 48 49 50

000
ASUS43 KLSX 011959
RWRMO

WEATHER SUMMARY FOR MISSOURI
NATIONAL WEATHER SERVICE SPRINGFIELD MO
300 PM CDT WED APR 01 2015

NOTE: "FAIR" INDICATES FEW OR NO CLOUDS BELOW 12,000 FEET WITH NO
       SIGNIFICANT WEATHER AND/OR OBSTRUCTIONS TO VISIBILITY.
       CURRENT SKY AND/OR WEATHER CONDITIONS ARE NOT AVAILABLE FOR
       CHILLICOTHE AND FARMINGTON.

MOZ001>031-035>038-043-044-053-054-012100-
...NORTHERN AND WESTERN MISSOURI...

CITY           SKY/WX    TMP DP  RH WIND       PRES   REMARKS
KANSAS CTY INT CLOUDY    79  56  45 S25G33    29.77F
KANSAS C DTWN  LGT RAIN  80  54  40 S16G29    29.77F
LEE`S SUMMIT   PTSUNNY   77  55  46 S21G33    29.80F
ST JOSEPH      MOSUNNY   81  54  39 S20G31    29.73F
CHILLICOTHE      N/A     78  50  37 SE14G26   29.80F
KIRKSVILLE     MOSUNNY   78  45  30 S24       29.83F

$$
MOZ066>068-077>081-088>096-101>105-012100-
...SOUTHWEST MISSOURI...

CITY           SKY/WX    TMP DP  RH WIND       PRES   REMARKS
SPRINGFIELD    CLOUDY    61  58  90 SE13      29.89S THUNDER
JOPLIN         PTSUNNY   65  61  87 E10       29.84F

$$
MOZ032>034-039>042-045>050-055>058-069>072-012100-
...CENTRAL MISSOURI...

CITY           SKY/WX    TMP DP  RH WIND       PRES   REMARKS
COLUMBIA       PTSUNNY   76  44  32 S18G29    29.87F
JEFFERSON CITY PTSUNNY   76  43  30 SE16      29.87F
ROLLA          MOSUNNY   74  42  31 SE18G24   29.90F
SEDALIA        CLOUDY    74  50  42 S23G31    29.86F
OSAGE BEACH    CLOUDY    72  46  40 S14G20    29.91S

$$
MOZ051-052-059>065-012100-
...EAST CENTRAL MISSOURI...

CITY           SKY/WX    TMP DP  RH WIND       PRES   REMARKS
ST LOUIS INTL  PTSUNNY   77  36  22 SE18      29.94F
SPIRIT OF STL  MOSUNNY   77  34  21 SE15G26   29.91F
ST CHARLES     PTSUNNY   76  38  25 SE21G28   29.92F

$$
MOZ072>076-082>087-097>100-106>115-012100-
...SOUTH CENTRAL AND SOUTHEAST MISSOURI...

CITY           SKY/WX    TMP DP  RH WIND       PRES   REMARKS
CAPE GIRARDEAU MOSUNNY   75  39  27 SE15      29.99F
FARMINGTON     MOSUNNY   75  39  27 SE17G24   29.99F
POPLAR BLUFF   PTSUNNY   72  47  40 SE10      29.97F
WEST PLAINS    CLOUDY    66  47  50 SE7       29.97F

$$



USA.gov is the U.S. government's official web portal to all federal, state and local government web resources and services.